Location: Manning Provincial Park
(49.0805°N, 120.7632°W)
Time: 03:18:39
(UTC-08:00)

ISS - Visible Passes

Search period start: 19 November 2018 00:00
Search period end: 29 November 2018 00:00
Orbit: 401 x 408 km, 51.6° (Epoch: 19 November)

Date Brightness Start Highest point End Pass type
(mag) Time Alt. Az. Time Alt. Az. Time Alt. Az.
23 Nov -1.2 18:07:09 10° SSE 18:07:15 10° SSE 18:07:15 10° SSE visible
24 Nov -1.2 18:49:23 10° SW 18:50:10 16° SSW 18:50:10 16° SSW visible
25 Nov -2.3 17:57:44 10° SSW 18:00:19 24° SE 18:00:19 24° SE visible
26 Nov -1.6 17:06:32 10° S 17:08:27 15° SE 17:10:22 10° ESE visible
26 Nov -2.1 18:41:12 10° WSW 18:43:02 30° SW 18:43:02 30° SW visible
27 Nov -3.3 17:49:12 10° SW 17:52:19 44° SSE 17:53:02 37° ESE visible
27 Nov -0.3 19:25:32 10° W 19:25:42 11° W 19:25:42 11° W visible
28 Nov -2.5 16:57:24 10° SSW 17:00:15 28° SE 17:02:58 11° E visible
28 Nov -2.7 18:33:16 10° WSW 18:35:37 44° W 18:35:37 44° W visible
